Regional Weather Roundup
Issued by NWS

Home | Current Version | Previous Version | Text Only | Print | Product List | Glossary On
Versions: 1 2 3 4 5 6 7 8 9 10 11 12 13 14 15 16 17 18 19 20 21 22 23 24 25 26 27 28 29 30 31 32 33 34 35 36 37 38 39 40 41 42 43 44 45 46 47 48 49 50
000
ASUS42 KKEY 231110
RWRKEY

FLORIDA REGIONAL WEATHER ROUNDUP FOR THE FLORIDA KEYS
NATIONAL WEATHER SERVICE KEY WEST FLORIDA
600 AM EST SUN NOV 23 2014

...SOUTH FLORIDA AND THE KEYS...

CITY           SKY/WX    TMP DP  RH WIND       PRES   REMARKS
FORT MYERS     PTCLDY    71  71 100 SE8       29.98S
SW REGIONAL AP MOCLDY    70  70 100 SE8       29.99F
NAPLES         PTCLDY    72  71  97 E8        29.98F
MIAMI          PTCLDY    77  72  84 E9        30.02R
WEST KENDALL   MOCLDY    76  72  87 SE9       30.02R
HOMESTEAD      CLEAR     76  72  87 E8        30.01R
MARATHON       MOCLDY    78  75  90 SE8       29.98R
BOCA CHICA NAS PTCLDY    76  73  91 SE12      29.98R
KEY WEST INTL  PTCLDY    78  78 100 SE14      29.98R

...INTERNATIONAL WEATHER...

CITY           SKY/WX    TMP DP  RH WIND       PRES   REMARKS
NASSAU BAHAMAS PTCLDY    77  72  83 E3        30.05R
CANCUN MEXICO  PTCLDY    77  73  88 SE7       29.89S
COZUMEL MEXICO PTCLDY    70  70 100 CALM      29.89S

ADJACENT COASTAL WATERS...

STATION/POSITION TIME  SKY/WX   TEMP    WIND        PRES    WAVE
                                AIR SEA DIR/SP/G            HT/PER
                 (UTC)          (F)     (DEG/KT/KT) (MB)    (FT/S)
PULASKI SHOAL LI 1000            78     140/ 15/ 17 1013.8F
SAND KEY         1100            79     130/ 14/ 16 1014.8R
SOMBRERO KEY     1100            80     130/ 21/ 22 1015.8R
LONG KEY         1000            78 74  140/ 13/ 15 1015.8F
MOLASSES REEF    1100            79 78  130/ 22/ 24 1015.7R
FOWEY ROCKS      NOT AVBL
Buoy 42080       NOT AVBL

$$


USA.gov is the U.S. government's official web portal to all federal, state and local government web resources and services.